User: anonymous   Login
Location: Goll?ig?dem
(16.6773°N, 80.7332°E)
Time: 02:55:27
(UTC+00:00)
Language:

FALCON 9 DEB - Orbit

View from above orbital plane
View from above orbital plane
View from above satellite
View from above satellite

Ground track
Ground track

The orbit data is extracted from the following two-line orbital elements,

1 46086U 20055BM  21174.21952915  .00011803  00000-0  11860-3 0  9997
2 46086  53.0053 167.4270 0010162 254.6831 105.3061 15.65943575 54597
Epoch (UTC): 23 June 2021 05:16:07
Eccentricity: 0.0010162
inclination: 53.0053°
perigee height: 363 km
apogee height: 377 km
right ascension of ascending node: 167.4270°
argument of perigee: 254.6831°
revolutions per day: 15.65943575
mean anomaly at epoch: 105.3061°
orbit number at epoch: 5459

The dashed part of the orbit path shows where the satellite is in the earth's shadow,  

DLR